カタログに戻る

DFH-1

運用中通信LEO
NORAD 4382·PAYLOAD·🇨🇳 China

打ち上げ Apr 24, 1970 から Jiuquan Satellite Launch Center

Loading…

次のパス (今後24時間)

TLE

最新Source: Space-Track

元期: Sep 14, 2026, 12:28 UTC

1 04382U 70034A   26257.51971188  .00000227  00000-0  43768-4 0  9996
2 04382  68.4261 239.4868 1032142 259.7708  88.5571 13.14637015657426

AllMySatでDFH-1をリアルタイム追跡

Download on the App Store